{"data":{"norad_id":55747,"epoch":"2026-05-25T02:19:59.890080Z","epoch_age_seconds":76847,"freshness":"FRESH","line1":"1 55747U 23028G   26145.09722095  .00001125  00000+0  10201-3 0  9990","line2":"2 55747  70.0006  51.8730 0002715 264.3372  95.7477 14.98334784177486","mean_motion":14.98334784,"eccentricity":0.0002715,"inclination_deg":70.0006,"raan_deg":51.873,"arg_perigee_deg":264.3372,"mean_anomaly_deg":95.7477,"bstar":0.00010201,"rev_number":17748,"period_min":96.106692267781,"perigee_km":570.15412350512,"apogee_km":573.92807021171,"semimajor_km":6950.1780968584,"source":"CELESTRAK","updated_at":"2026-05-25T13:38:17.878942Z"}}